FW6138 Weather Reports


Display with metric or nautical units.
time (UTC)temp
F
wind
direction
speed
MPH
gust
MPH
rain 1hr
in
rain 24hr
in
rain mn
in
humidity
%
barometer
mb
20260902000037 66 306 8.0 20.0 0.00 0.00 0.00 64 1011.0
20260901234530 66 308 10.0 21.0 0.00 0.00 0.00 64 1011.1
20260901233058 67 307 10.0 23.0 0.00 0.00 0.00 63 1011.0
20260901231531 67 308 10.0 22.0 0.00 0.00 0.00 64 1011.0
20260901224533 68 301 11.0 28.0 0.00 0.00 0.00 62 1011.0
20260901223042 69 303 12.0 28.0 0.00 0.00 0.00 61 1010.7
20260901221535 69 302 11.0 25.0 0.00 0.00 0.00 60 1010.6
20260901220036 69 300 10.0 21.0 0.00 0.00 0.00 61 1010.5
20260901214537 69 304 11.0 23.0 0.00 0.00 0.00 62 1010.4
20260901213030 68 310 10.0 28.0 0.00 0.00 0.00 62 1010.5
20260901211536 67 313 12.0 24.0 0.00 0.00 0.00 63 1010.6
20260901210037 67 299 12.0 25.0 0.00 0.00 0.00 63 1010.7
20260901204537 68 292 10.0 25.0 0.00 0.00 0.00 63 1010.8
20260901203036 67 296 11.0 25.0 0.00 0.00 0.00 63 1010.9
20260901201538 68 299 10.0 25.0 0.00 0.00 0.00 63 1011.0
20260901200037 67 305 8.0 20.0 0.00 0.00 0.00 64 1011.1
20260901194533 67 308 9.0 19.0 0.00 0.00 0.00 65 1011.3
20260901193030 67 311 9.0 18.0 0.00 0.00 0.00 65 1011.7
20260901191538 67 309 8.0 19.0 0.00 0.00 0.00 66 1011.9
20260901184537 66 308 8.0 17.0 0.00 0.00 0.00 67 1012.1
20260901183029 66 314 7.0 19.0 0.00 0.00 0.00 68 1012.2
20260901181531 65 305 6.0 14.0 0.00 0.00 0.00 70 1012.3
20260901180108 64 303 7.0 19.0 0.00 0.00 0.00 71 1012.5
20260901173031 64 309 6.0 14.0 0.00 0.00 0.00 72 1012.5
20260901171531 63 299 5.0 14.0 0.00 0.00 0.00 74 1012.5
20260901163031 60 295 5.0 10.0 0.00 0.00 0.00 79 1012.6
20260901161531 60 295 4.0 10.0 0.00 0.00 0.00 80 1012.7
20260901160032 60 285 2.0 7.0 0.00 0.00 0.00 82 1012.6
20260901154645 59 285 2.0 5.0 0.00 0.00 0.00 83 1012.5
20260901153112 58 278 3.0 9.0 0.00 0.00 0.00 85 1012.6
20260901151531 57 274 3.0 7.0 0.00 0.00 0.00 86 1012.5
20260901150111 57 290 3.0 7.0 0.00 0.00 0.00 89 1012.4
20260901144539 56 295 2.0 6.0 0.00 0.00 0.00 91 1012.3
20260901141531 55 283 1.0 6.0 0.00 0.00 0.00 93 1012.2
20260901133029 52 154 0.0 3.0 0.00 0.00 0.00 94 1011.7
20260901131530 52 137 1.0 4.0 0.00 0.00 0.00 94 1011.5
20260901123030 52 239 0.0 3.0 0.00 0.00 0.00 93 1011.2
20260901121539 52 229 0.0 4.0 0.00 0.00 0.00 94 1011.3
20260901120106 51 202 0.0 6.0 0.00 0.00 0.00 93 1011.2
20260901114531 51 181 1.0 4.0 0.00 0.00 0.00 93 1011.2
20260901113030 51 137 0.0 3.0 0.00 0.00 0.00 93 1011.1
20260901111535 51 165 2.0 4.0 0.00 0.00 0.00 93 1011.1
20260901110030 50 224 1.0 3.0 0.00 0.00 0.00 93 1011.0
20260901104530 50 195 0.0 3.0 0.00 0.00 0.00 92 1011.1
20260901103031 50 197 0.0 3.0 0.00 0.00 0.00 92 1011.0
20260901101531 50 157 2.0 3.0 0.00 0.00 0.00 92 1011.0
20260901100104 50 179 1.0 3.0 0.00 0.00 0.00 92 1010.9
20260901094530 51 204 1.0 3.0 0.00 0.00 0.00 92 1010.9
20260901093029 51 191 1.0 3.0 0.00 0.00 0.00 92 1011.0
20260901091603 51 157 1.0 3.0 0.00 0.00 0.00 92 1010.9
20260901090030 51 157 1.0 3.0 0.00 0.00 0.00 91 1010.7
20260901084530 51 157 0.0 2.0 0.00 0.00 0.00 90 1010.8
20260901083029 51 157 0.0 2.0 0.00 0.00 0.00 90 1011.0
20260901081533 52 164 1.0 3.0 0.00 0.00 0.00 90 1010.9
20260901080038 52 255 1.0 5.0 0.00 0.00 0.00 90 1010.8
20260901074530 52 214 0.0 3.0 0.00 0.00 0.00 90 1010.7
20260901073032 52 180 0.0 3.0 0.00 0.00 0.00 90 1010.6
20260901071530 52 171 1.0 3.0 0.00 0.00 0.00 89 1010.6
20260901064531 53 153 1.0 4.0 0.00 0.00 0.00 88 1010.5
20260901063030 54 155 2.0 4.0 0.00 0.00 0.00 88 1010.6
20260901061536 54 169 1.0 3.0 0.00 0.00 0.00 88 1010.7
20260901060108 54 188 2.0 4.0 0.00 0.00 0.00 88 1010.6
20260901054531 55 180 2.0 3.0 0.00 0.00 0.00 86 1010.6
20260901053036 55 150 2.0 3.0 0.00 0.00 0.00 85 1010.6
20260901051603 55 139 1.0 4.0 0.00 0.00 0.00 85 1010.6
20260901050032 56 194 0.0 0.0 0.00 0.00 0.00 84 1010.5
20260901044608 57 200 0.0 4.0 0.00 0.00 0.00 83 1010.4
20260901043029 58 185 2.0 4.0 0.00 0.00 0.00 82 1010.3
20260901041531 59 160 1.0 4.0 0.00 0.00 0.00 80 1010.1
20260901040030 59 152 2.0 4.0 0.00 0.00 0.00 82 1009.9
20260901034532 60 163 2.0 4.0 0.00 0.00 0.00 83 1009.8
20260901033034 60 153 1.0 3.0 0.00 0.00 0.00 81 1009.5
20260901030147 62 155 0.0 3.0 0.00 0.00 0.00 79 1009.1
20260901023031 64 157 0.0 1.0 0.00 0.00 0.00 76 1008.8
20260901021529 66 157 2.0 4.0 0.00 0.00 0.00 76 1008.7
20260901020031 67 164 2.0 4.0 0.00 0.00 0.00 76 1008.7
20260901014530 72 237 1.0 2.0 0.00 0.00 0.00 70 1008.6
20260901013031 77 316 0.0 0.0 0.00 0.00 0.00 67 1008.6
20260901011533 81 5 0.0 0.0 0.00 0.00 0.00 62 1008.7
20260901004533 82 22 0.0 0.0 0.00 0.00 0.00 56 1008.8
20260901003034 82 22 0.0 0.0 0.00 0.00 0.00 51 1009.0
20260901001644 85 56 0.0 3.0 0.00 0.00 0.00 42 1009.1